Home > Time Zones > World Clock > Weather > Peru > Lima > Past weeks

Flag for Peru Weather past 2 weeks in Lima, Lima, Peru

Now
75 °F

Partly sunny.


Feels Like: 77 °F
Forecast: 68 / 80 °F
Wind: 7 mph from Southwest

Location: Lima-Callao / Aerop. Internacional Jorgechavez

Current Time: Jan 26, 2015 at 10:01:16 AM

Latest Report: Jan 26, 2015 at 9:00 AM


Visibility: N/A

Pressure: 29.89 "Hg

Humidity: 74%

Dew point: 66 °F

Location of LimaLocation

Historic Weather in Lima — Graph

°F

Lima temperature yesterday

Maximum temperature yesterday: 79 °F (at 11:00 AM)
Minimum temperature yesterday: 70 °F (at 3:00 AM)
Average temperature yesterday: 74 °F

Past Weeks' High & Low Weather Summary

 TemperatureHumidityPressure
High79 °F (Jan 11, 1:00 PM)94% (Jan 15, 2:00 AM)30.04 "Hg (Jan 15, 2:00 AM)
Low66 °F (Jan 15, 6:00 AM)54% (Jan 19, 12:00 PM)29.80 "Hg (Jan 11, 4:00 PM)
Average73 °F76%29.92 "Hg
* Reported Jan 11 9:00 AM — Jan 26 9:00 AM, Lima, Weather by CustomWeather, © 2014

Note: Actual official high and low records may vary slightly from our data, if they occured in-between our weather recording intervals... More about our weather records

Advertising

Lima weather history for previous 24 hours

 ConditionsComfort  
Time TempWeatherWind HumidityBarometerVisibility
9:00 AM
Jan 26
75 °FPartly sunny.7 mph74%29.89 "HgN/A
8:00 AM72 °FPassing clouds.3 mph78%29.89 "HgN/A
7:00 AM68 °FSunny.3 mph88%29.86 "Hg10 mi
6:00 AM68 °FPartly sunny.3 mph88%29.83 "HgN/A
5:00 AM70 °FPassing clouds.6 mph83%29.83 "HgN/A
4:00 AM70 °FPassing clouds.7 mph88%29.80 "HgN/A
3:00 AM70 °FPassing clouds.9 mph88%29.80 "HgN/A
2:00 AM70 °FPassing clouds.10 mph88%29.83 "HgN/A
1:00 AM70 °FClear.10 mph88%29.83 "Hg10 mi
12:00 AM70 °FPassing clouds.14 mph88%29.86 "HgN/A
11:00 PM
Jan 25
72 °FPassing clouds.16 mph83%29.86 "HgN/A
10:00 PM72 °FClear.14 mph83%29.86 "Hg10 mi
9:00 PM72 °FClear.15 mph83%29.86 "Hg10 mi
8:00 PM72 °FPassing clouds.15 mph83%29.83 "HgN/A
7:00 PM72 °FClear.15 mph83%29.83 "Hg10 mi
6:00 PM73 °FScattered clouds.17 mph78%29.80 "HgN/A
5:00 PM75 °FScattered clouds.20 mph74%29.80 "HgN/A
4:00 PM77 °FScattered clouds.20 mph69%29.80 "HgN/A
3:00 PM79 °FPassing clouds.17 mph65%29.83 "HgN/A
2:00 PM79 °FPassing clouds.15 mph65%29.83 "HgN/A
1:00 PM79 °FSunny.15 mph65%29.86 "Hg10 mi
12:00 PM79 °FSunny.17 mph65%29.89 "Hg10 mi
11:00 AM79 °FPassing clouds.13 mph61%29.89 "HgN/A
10:00 AM77 °FSunny.13 mph65%29.89 "Hg10 mi
Weather by CustomWeather, © 2014

See weather overviewHow to use our weather pages